• In Lithuania
  • List of Countries
  • For 7 days
  • Water Temperature
  • Satellite Maps
  • Weather Map
  • Weather Widgets
  • user-avatar
    Login

    Hourly Weather Erandol

    Today, 18 January, Thursday

    Time Temperature Precipitation Wind Pressure Humidity
    00:00 +26°C° 0 mm 2 mps 741 mmHg 35%
    01:00 +25°C° 0 mm 2 mps 741 mmHg 36%
    02:00 +24°C° 0 mm 1 mps 740 mmHg 38%
    03:00 +24°C° 0 mm 1 mps 740 mmHg 39%
    04:00 +23°C° 0 mm 1 mps 741 mmHg 40%
    05:00 +23°C° 0 mm 1 mps 741 mmHg 42%
    06:00 +24°C° 0 mm 1 mps 741 mmHg 41%
    07:00 +24°C° 0 mm 1 mps 742 mmHg 39%
    08:00 +25°C° 0 mm 1 mps 742 mmHg 37%
    09:00 +27°C° 0 mm 1 mps 742 mmHg 34%
    10:00 +29°C° 0 mm 2 mps 742 mmHg 30%
    11:00 +31°C° 0 mm 2 mps 743 mmHg 26%
    12:00 +31°C° 0 mm 1 mps 742 mmHg 25%
    13:00 +32°C° 0 mm 1 mps 741 mmHg 23%
    14:00 +33°C° 0 mm 1 mps 740 mmHg 22%
    15:00 +32°C° 0 mm 1 mps 740 mmHg 22%
    16:00 +32°C° 0 mm 1 mps 740 mmHg 23%
    17:00 +32°C° 0 mm 1 mps 740 mmHg 23%
    18:00 +31°C° 0 mm 2 mps 740 mmHg 24%
    19:00 +29°C° 0 mm 2 mps 741 mmHg 26%
    20:00 +28°C° 0 mm 2 mps 741 mmHg 27%
    21:00 +27°C° 0 mm 2 mps 741 mmHg 28%
    22:00 +27°C° 0 mm 2 mps 741 mmHg 29%
    23:00 +26°C° 0 mm 3 mps 741 mmHg 30%

    Tomorrow, 19 January, Friday

    Time Temperature Precipitation Wind Pressure Humidity
    00:00 +25°C° 0 mm 2 mps 741 mmHg 31%
    01:00 +25°C° 0 mm 2 mps 741 mmHg 32%
    02:00 +24°C° 0 mm 2 mps 741 mmHg 33%
    03:00 +24°C° 0 mm 2 mps 741 mmHg 34%
    04:00 +23°C° 0 mm 1 mps 741 mmHg 35%
    05:00 +22°C° 0 mm 1 mps 741 mmHg 35%
    06:00 +23°C° 0 mm 1 mps 741 mmHg 34%
    07:00 +24°C° 0 mm 1 mps 742 mmHg 32%
    08:00 +24°C° 0 mm 2 mps 743 mmHg 31%
    09:00 +26°C° 0 mm 2 mps 743 mmHg 27%
    10:00 +29°C° 0 mm 2 mps 743 mmHg 23%
    11:00 +31°C° 0 mm 3 mps 743 mmHg 19%
    12:00 +31°C° 0 mm 3 mps 742 mmHg 19%
    13:00 +32°C° 0 mm 2 mps 742 mmHg 18%
    14:00 +34°C° 0 mm 2 mps 741 mmHg 18%
    15:00 +34°C° 0 mm 2 mps 741 mmHg 19%
    16:00 +32°C° 0 mm 2 mps 741 mmHg 19%
    17:00 +32°C° 0 mm 2 mps 741 mmHg 20%
    18:00 +31°C° 0 mm 2 mps 741 mmHg 22%
    19:00 +29°C° 0 mm 2 mps 741 mmHg 23%
    20:00 +28°C° 0 mm 2 mps 742 mmHg 25%
    21:00 +27°C° 0 mm 2 mps 742 mmHg 26%
    22:00 +26°C° 0 mm 2 mps 742 mmHg 27%
    23:00 +26°C° 0 mm 2 mps 742 mmHg 29%

    Day after tomorrow, 20 January, Saturday

    Time Temperature Precipitation Wind Pressure Humidity
    00:00 +25°C° 0 mm 2 mps 741 mmHg 30%
    01:00 +25°C° 0 mm 2 mps 741 mmHg 31%
    02:00 +24°C° 0 mm 2 mps 741 mmHg 32%
    03:00 +23°C° 0 mm 2 mps 741 mmHg 34%
    04:00 +23°C° 0 mm 2 mps 741 mmHg 35%
    05:00 +22°C° 0 mm 1 mps 740 mmHg 36%
    06:00 +23°C° 0 mm 1 mps 741 mmHg 35%
    07:00 +24°C° 0 mm 1 mps 741 mmHg 34%
    08:00 +24°C° 0 mm 1 mps 742 mmHg 32%
    09:00 +26°C° 0 mm 2 mps 742 mmHg 29%
    10:00 +28°C° 0 mm 2 mps 742 mmHg 26%
    11:00 +30°C° 0 mm 3 mps 742 mmHg 22%
    12:00 +31°C° 0 mm 2 mps 741 mmHg 21%
    13:00 +32°C° 0 mm 2 mps 740 mmHg 20%
    14:00 +34°C° 0 mm 2 mps 739 mmHg 19%
    15:00 +34°C° 0 mm 2 mps 739 mmHg 20%
    16:00 +32°C° 0 mm 2 mps 739 mmHg 20%
    17:00 +32°C° 0 mm 2 mps 739 mmHg 21%
    18:00 +31°C° 0 mm 2 mps 740 mmHg 23%
    19:00 +29°C° 0 mm 2 mps 740 mmHg 24%
    20:00 +28°C° 0 mm 2 mps 741 mmHg 26%
    21:00 +27°C° 0 mm 2 mps 740 mmHg 27%
    22:00 +26°C° 0 mm 2 mps 740 mmHg 29%
    23:00 +26°C° 0 mm 2 mps 740 mmHg 30%

    21 January, Sunday

    Time Temperature Precipitation Wind Pressure Humidity
    00:00 +25°C° 0 mm 2 mps 740 mmHg 31%
    01:00 +24°C° 0 mm 2 mps 740 mmHg 32%
    02:00 +24°C° 0 mm 2 mps 739 mmHg 33%
    03:00 +23°C° 0 mm 2 mps 739 mmHg 34%
    04:00 +23°C° 0 mm 2 mps 739 mmHg 35%
    05:00 +21°C° 0 mm 2 mps 739 mmHg 37%
    06:00 +23°C° 0 mm 2 mps 740 mmHg 36%
    07:00 +24°C° 0 mm 2 mps 741 mmHg 35%
    08:00 +24°C° 0 mm 2 mps 741 mmHg 34%
    09:00 +26°C° 0 mm 2 mps 741 mmHg 30%
    10:00 +29°C° 0 mm 3 mps 741 mmHg 27%
    11:00 +31°C° 0 mm 3 mps 741 mmHg 23%
    12:00 +32°C° 0 mm 2 mps 740 mmHg 21%
    13:00 +32°C° 0 mm 2 mps 740 mmHg 20%
    14:00 +33°C° 0 mm 1 mps 739 mmHg 18%
    15:00 +33°C° 0 mm 1 mps 738 mmHg 19%
    16:00 +33°C° 0 mm 1 mps 738 mmHg 19%
    17:00 +32°C° 0 mm 2 mps 738 mmHg 20%
    18:00 +31°C° 0 mm 2 mps 739 mmHg 22%
    19:00 +29°C° 0 mm 2 mps 739 mmHg 23%
    20:00 +28°C° 0 mm 2 mps 740 mmHg 25%
    21:00 +27°C° 0 mm 2 mps 740 mmHg 27%
    22:00 +27°C° 0 mm 2 mps 740 mmHg 28%
    23:00 +26°C° 0 mm 2 mps 739 mmHg 29%

    22 January, Monday

    Time Temperature Precipitation Wind Pressure Humidity
    00:00 +25°C° 0 mm 2 mps 739 mmHg 30%
    01:00 +25°C° 0 mm 2 mps 739 mmHg 31%
    02:00 +24°C° 0 mm 2 mps 738 mmHg 32%
    03:00 +24°C° 0 mm 2 mps 738 mmHg 33%
    04:00 +23°C° 0 mm 2 mps 738 mmHg 34%
    05:00 +23°C° 0 mm 2 mps 738 mmHg 35%
    06:00 +23°C° 0 mm 2 mps 739 mmHg 34%
    07:00 +24°C° 0 mm 2 mps 739 mmHg 33%
    08:00 +25°C° 0 mm 2 mps 740 mmHg 31%
    09:00 +27°C° 0 mm 2 mps 740 mmHg 27%
    10:00 +29°C° 0 mm 2 mps 740 mmHg 23%
    11:00 +31°C° 0 mm 2 mps 740 mmHg 19%
    12:00 +32°C° 0 mm 2 mps 739 mmHg 18%
    13:00 +34°C° 0 mm 2 mps 738 mmHg 16%
    14:00 +34°C° 0 mm 1 mps 737 mmHg 15%
    15:00 +34°C° 0 mm 1 mps 737 mmHg 15%
    16:00 +35°C° 0 mm 2 mps 737 mmHg 15%
    17:00 +34°C° 0 mm 2 mps 737 mmHg 16%
    18:00 +32°C° 0 mm 2 mps 737 mmHg 17%
    19:00 +30°C° 0 mm 2 mps 738 mmHg 19%
    20:00 +28°C° 0 mm 2 mps 738 mmHg 20%
    21:00 +28°C° 0 mm 2 mps 738 mmHg 21%
    22:00 +27°C° 0 mm 2 mps 738 mmHg 22%
    23:00 +26°C° 0 mm 2 mps 738 mmHg 23%

    23 January, Tuesday

    Time Temperature Precipitation Wind Pressure Humidity
    00:00 +26°C° 0 mm 2 mps 738 mmHg 25%
    01:00 +25°C° 0 mm 2 mps 737 mmHg 26%
    02:00 +24°C° 0 mm 2 mps 737 mmHg 27%
    03:00 +24°C° 0 mm 2 mps 737 mmHg 29%
    04:00 +23°C° 0 mm 1 mps 737 mmHg 30%
    05:00 +23°C° 0 mm 1 mps 737 mmHg 32%
    06:00 +24°C° 0 mm 1 mps 738 mmHg 32%
    07:00 +24°C° 0 mm 1 mps 738 mmHg 32%
    08:00 +25°C° 0 mm 1 mps 739 mmHg 31%
    09:00 +26°C° 0 mm 2 mps 739 mmHg 29%
    10:00 +28°C° 0 mm 2 mps 739 mmHg 27%
    11:00 +30°C° 0 mm 3 mps 739 mmHg 24%
    12:00 +32°C° 0 mm 4 mps 738 mmHg 22%
    13:00 +33°C° 0 mm 4 mps 737 mmHg 21%
    14:00 +34°C° 0 mm 5 mps 736 mmHg 19%
    15:00 +33°C° 0 mm 6 mps 736 mmHg 20%
    16:00 +33°C° 0 mm 6 mps 736 mmHg 21%
    17:00 +32°C° 0 mm 6 mps 736 mmHg 22%
    18:00 +30°C° 0 mm 6 mps 737 mmHg 24%
    19:00 +28°C° 0 mm 6 mps 738 mmHg 26%
    20:00 +26°C° 0 mm 6 mps 738 mmHg 28%
    21:00 +25°C° 0 mm 5 mps 738 mmHg 30%
    22:00 +23°C° 0 mm 4 mps 739 mmHg 31%
    23:00 +22°C° 0 mm 3 mps 739 mmHg 33%
    Show more